Weather History for Houghton, MI

Change the Weather History Date:

Tuesday, December 4, 2012

  Actual Average Record
Temperature  
Mean Temperature 32 °F -  
Max Temperature 42 °F 27 °F 51 °F (1962)
Min Temperature 23 °F 17 °F -2 °F (1972)
Degree Days  
Heating Degree Days 32    
Moisture  
Dew Point 20 °F    
Average Humidity 69    
Maximum Humidity 76    
Minimum Humidity 60    
Precipitation  
Precipitation 0.00 in - - ()
Sea Level Pressure  
Sea Level Pressure 29.93 in    
Wind  
Wind Speed 27 mph (WNW)    
Max Wind Speed 39 mph    
Max Gust Speed 52 mph    
Visibility 9 miles    
Events Snow    
Averages and records for this station are not official NWS values.
T = Trace of Precipitation, MM = Missing Value Source: NWS Daily Summary

Daily Weather History Graph

Daily Weather History Graph

Search for Another Location

Airport:

Trip Planner

Search our weather history database for the weather conditions in past years. The results will help you decide how hot, cold, wet, or windy it might be!

Date:

Astronomy

Dec. 04, 2012 Rise Set
Actual Time 8:23 AM EST 5:04 PM EST
Civil Twilight 7:48 AM EST 5:39 PM EST
Nautical Twilight 7:10 AM EST 6:18 PM EST
Astronomical Twilight 6:33 AM EST 6:55 PM EST
Moon 11:07 PM EST (12/4) 12:03 PM EST (12/4)
Length of Visible Light 9h 51m
Length of Day
8h 41m
Waning Gibbous, 69% of the Moon is Illuminated
Dec 4
Waning Gibbous
Dec 6
Last Quarter
Dec 13
New
Dec 20
First Quarter
Dec 28
Full

Hourly Weather History & Observations

Time (EST) Temp. Windchill Dew Point Humidity Pressure Visibility Wind Dir Wind Speed Gust Speed Precip Events Conditions
12:53 AM 42.1 °F 31.9 °F 34.0 °F 73% 29.62 in 10.0 mi West 26.5 mph 36.8 mph N/A   Clear
1:53 AM 41.0 °F 30.9 °F 32.0 °F 70% 29.64 in 10.0 mi West 24.2 mph 40.3 mph N/A   Overcast
2:53 AM 39.9 °F 28.8 °F 30.9 °F 70% 29.66 in 10.0 mi West 27.6 mph 42.6 mph N/A   Partly Cloudy
3:16 AM 39.2 °F 28.5 °F 32.0 °F 75% 29.65 in 10.0 mi West 24.2 mph 40.3 mph N/A   Mostly Cloudy
3:50 AM 37.4 °F 24.4 °F 30.2 °F 75% 29.66 in 10.0 mi West 33.4 mph 43.7 mph N/A   Scattered Clouds
3:53 AM 37.0 °F 24.9 °F 30.0 °F 76% 29.69 in 10.0 mi West 27.6 mph 43.7 mph N/A   Partly Cloudy
4:53 AM 35.1 °F 20.8 °F 26.1 °F 70% 29.72 in 10.0 mi West 35.7 mph 49.5 mph N/A   Partly Cloudy
5:53 AM 33.1 °F 17.5 °F 23.0 °F 66% 29.73 in 10.0 mi West 39.1 mph 51.8 mph N/A   Partly Cloudy
6:53 AM 32.0 °F 16.7 °F 21.9 °F 66% 29.74 in 10.0 mi West 34.5 mph 44.9 mph N/A   Scattered Clouds
7:02 AM 30.2 °F 14.3 °F 21.2 °F 69% 29.72 in 10.0 mi West 34.5 mph 50.6 mph N/A   Mostly Cloudy
7:53 AM 30.0 °F 15.4 °F 21.9 °F 72% 29.78 in 10.0 mi West 27.6 mph 41.4 mph N/A   Mostly Cloudy
8:53 AM 28.9 °F 13.5 °F 21.0 °F 72% 29.81 in 10.0 mi WNW 29.9 mph 41.4 mph N/A   Overcast
9:53 AM 28.0 °F 13.0 °F 19.0 °F 69% 29.86 in 10.0 mi West 26.5 mph 38.0 mph N/A   Overcast
10:53 AM 27.0 °F 12.2 °F 16.0 °F 63% 29.89 in 10.0 mi West 24.2 mph 39.1 mph N/A   Mostly Cloudy
11:53 AM 25.0 °F 9.5 °F 16.0 °F 69% 29.91 in 10.0 mi West 24.2 mph 34.5 mph 0.00 in   Overcast
12:53 PM 24.1 °F 6.9 °F 15.1 °F 69% 29.93 in 8.0 mi West 29.9 mph 39.1 mph 0.00 in Snow Light Snow
1:53 PM 24.1 °F 7.4 °F 16.0 °F 71% 29.95 in 6.0 mi West 27.6 mph 36.8 mph 0.00 in Snow Light Snow
2:53 PM 24.1 °F 7.1 °F 15.1 °F 69% 29.99 in 5.0 mi WNW 28.8 mph 41.4 mph 0.00 in Snow Light Snow
3:53 PM 23.0 °F 6.9 °F 14.0 °F 68% 30.03 in 8.0 mi WNW 24.2 mph 41.4 mph 0.00 in Snow Light Snow
4:53 PM 23.0 °F 5.4 °F 15.1 °F 72% 30.08 in 9.0 mi WNW 29.9 mph 36.8 mph 0.00 in Snow Light Snow
5:53 PM 24.1 °F 9.0 °F 15.1 °F 69% 30.11 in 10.0 mi WNW 21.9 mph 27.6 mph 0.00 in   Overcast
6:36 PM 24.8 °F 8.7 °F 14.0 °F 64% 30.08 in 10.0 mi WNW 26.5 mph 35.7 mph N/A   Overcast
6:53 PM 25.0 °F 13.1 °F 15.1 °F 66% 30.14 in 10.0 mi WNW 13.8 mph 27.6 mph N/A   Overcast
7:53 PM 25.0 °F 10.9 °F 16.0 °F 69% 30.17 in 9.0 mi NW 19.6 mph 26.5 mph 0.00 in Snow Light Snow
8:53 PM 26.1 °F 12.3 °F 14.0 °F 60% 30.19 in 10.0 mi NW 19.6 mph 31.1 mph 0.00 in   Overcast
9:53 PM 26.1 °F 13.6 °F 15.1 °F 63% 30.22 in 9.0 mi NW 16.1 mph 26.5 mph 0.00 in Snow Light Snow
10:31 PM 24.8 °F 11.5 °F 15.8 °F 69% 30.19 in 5.0 mi NW 17.3 mph 26.5 mph 0.00 in Snow Light Snow
10:43 PM 24.8 °F 11.1 °F 15.8 °F 69% 30.19 in 9.0 mi NW 18.4 mph 25.3 mph 0.00 in   Overcast
10:53 PM 25.0 °F 11.3 °F 16.0 °F 69% 30.25 in 10.0 mi NNW 18.4 mph 26.5 mph 0.00 in   Overcast
11:53 PM 25.0 °F 13.1 °F 16.0 °F 69% 30.28 in 8.0 mi NW 13.8 mph - 0.00 in Snow Light Snow